logo dgac
Martes 21 de Septiembre del 2021
Buscar por aerodromo o helipuerto
Ingrese nombre de aeródromo, localidad o designador OACI:

Aeródromo: Futaleufú (PUB) (SCFT)

Ubicación: Futaleufú, X Región, Chile (43º 11' 09'' S, 71º 51' 02'' W) Ver ubicación en el mapa

Pistas

Orientación Dimensión Pendiente Superficie Resistencia APCH THR RWY PAPI
09/27 948 x 18 1,00 ASPH PCN 27 F/A/Y/T No No No No
Horas de operación HJ
Elevación 350 m / 1148 ft
Otra Información Adm : D.G.A.C.
Uso : PUB
Ubicado a 1.2 km E Futaleufú
TEL 652486288 / CEL 988377894
email : aro.futaleufu@dgac.gob.cl

Otra información ver AIP-Chile Volumen I AD 3.9-6.2-F


.
CCCM/FCCV Descargar
andera de Chile
Mapa de  Futaleufú (PUB) (SCFT)

Último METAR

METAR SCFT 211000Z AUTO 00000KT 0900 FG ///////// M01/M01 Q1025

Último TAF

No hay tafs registrados para este aeródromo

Últimas fotos cámaras

Imagen aerodromo  Futaleufú (PUB) (SCFT) Este tomada el 21-09-2021 10:41:27 Imagen aerodromo  Futaleufú (PUB) (SCFT) Oeste tomada el 21-09-2021 10:41:54

Último NOTAM

No hay notams registrados para este aeródromo